Time,TemperatureF,DewpointF,PressureIn,WindDirection,WindDirectionDegrees,WindSpeedMPH,WindSpeedGustMPH,Humidity,HourlyPrecipIn,Conditions,Clouds,dailyrainin,SolarRadiationWatts/m^2,SoftwareType,DateUTC
2013-01-16 00:00:00,2.8,2.8,30.72,South,178,0.0,-999.0,100,-99.99,,,0.00,0.0,cwc,2013-01-16 07:00:00,
2013-01-16 00:05:00,2.2,2.2,30.73,South,178,0.0,-999.0,100,-99.99,,,0.00,0.0,cwc,2013-01-16 07:05:00,
2013-01-16 00:10:00,1.8,1.8,30.73,South,178,0.0,-999.0,100,-99.99,,,0.00,0.0,cwc,2013-01-16 07:10:00,
2013-01-16 00:15:00,8.1,5.2,30.73,South,178,0.0,-999.0,92,-99.99,,,0.00,0.0,cwc,2013-01-16 07:15:00,
2013-01-16 00:20:00,6.1,6.1,30.65,South,178,0.0,-999.0,100,-99.99,,,0.00,0.0,cwc,2013-01-16 07:20:00,
2013-01-16 00:25:00,6.3,6.3,30.65,South,178,0.0,-999.0,100,-99.99,,,0.00,0.0,cwc,2013-01-16 07:25:00,
2013-01-16 00:30:00,3.9,3.9,30.65,South,178,0.0,-999.0,100,-99.99,,,0.00,0.0,cwc,2013-01-16 07:30:00,
2013-01-16 00:35:00,7.9,7.9,30.70,South,178,0.0,-999.0,100,-99.99,,,0.00,0.0,cwc,2013-01-16 07:35:00,
2013-01-16 00:40:00,4.1,4.1,30.70,South,178,0.0,-999.0,100,-99.99,,,0.00,0.0,cwc,2013-01-16 07:40:00,
2013-01-16 00:45:00,2.4,2.4,30.70,South,178,0.0,-999.0,100,-99.99,,,0.00,0.0,cwc,2013-01-16 07:45:00,
2013-01-16 00:50:00,2.4,2.4,30.67,South,178,0.0,-999.0,100,-99.99,,,0.00,0.0,cwc,2013-01-16 07:50:00,
2013-01-16 00:55:00,4.7,4.7,30.67,South,178,0.0,-999.0,100,-99.99,,,0.00,0.0,cwc,2013-01-16 07:55:00,
2013-01-16 01:00:00,4.8,4.8,30.67,South,178,0.0,-999.0,100,-99.99,,,0.00,0.0,cwc,2013-01-16 08:00:00,
2013-01-16 01:05:00,3.7,3.7,30.69,South,178,0.0,-999.0,100,-99.99,,,0.00,0.0,cwc,2013-01-16 08:05:00,
2013-01-16 01:10:00,3.0,3.0,30.69,South,178,0.0,-999.0,100,-99.99,,,0.00,0.0,cwc,2013-01-16 08:10:00,
2013-01-16 01:15:00,3.0,3.0,30.69,South,178,0.0,-999.0,100,-99.99,,,0.00,0.0,cwc,2013-01-16 08:15:00,
2013-01-16 01:20:00,4.3,4.3,30.69,South,178,0.0,-999.0,100,-99.99,,,0.00,0.0,cwc,2013-01-16 08:20:00,
2013-01-16 01:25:00,8.1,8.1,30.69,South,178,0.0,-999.0,100,-99.99,,,0.00,0.0,cwc,2013-01-16 08:25:00,
2013-01-16 01:30:00,4.7,4.7,30.69,South,178,0.0,-999.0,100,-99.99,,,0.00,0.0,cwc,2013-01-16 08:30:00,
2013-01-16 01:35:00,3.0,3.0,30.68,South,178,0.0,-999.0,100,-99.99,,,0.00,0.0,cwc,2013-01-16 08:35:00,
2013-01-16 01:40:00,2.2,2.2,30.68,South,178,0.0,-999.0,100,-99.99,,,0.00,0.0,cwc,2013-01-16 08:40:00,
2013-01-16 01:45:00,3.2,3.2,30.68,South,178,0.0,-999.0,100,-99.99,,,0.00,0.0,cwc,2013-01-16 08:45:00,
2013-01-16 01:50:00,2.6,2.6,30.70,South,178,0.0,-999.0,100,-99.99,,,0.00,0.0,cwc,2013-01-16 08:50:00,
2013-01-16 01:55:00,2.2,2.2,30.70,South,178,0.0,-999.0,100,-99.99,,,0.00,0.0,cwc,2013-01-16 08:55:00,
2013-01-16 02:00:00,3.9,3.9,30.70,South,178,0.0,-999.0,100,-99.99,,,0.00,0.0,cwc,2013-01-16 09:00:00,
2013-01-16 02:05:00,5.2,5.2,30.70,South,178,0.0,-999.0,100,-99.99,,,0.00,0.0,cwc,2013-01-16 09:05:00,
2013-01-16 02:10:00,4.5,4.5,30.70,South,178,0.0,-999.0,100,-99.99,,,0.00,0.0,cwc,2013-01-16 09:10:00,
2013-01-16 02:15:00,6.3,6.3,30.70,South,178,0.0,-999.0,100,-99.99,,,0.00,0.0,cwc,2013-01-16 09:15:00,
2013-01-16 02:20:00,8.6,8.6,30.66,South,178,0.0,-999.0,100,-99.99,,,0.00,0.0,cwc,2013-01-16 09:20:00,
2013-01-16 02:25:00,4.7,4.7,30.66,South,178,0.0,-999.0,100,-99.99,,,0.00,0.0,cwc,2013-01-16 09:25:00,
2013-01-16 02:30:00,3.4,3.4,30.66,South,178,0.0,-999.0,100,-99.99,,,0.00,0.0,cwc,2013-01-16 09:30:00,
2013-01-16 02:35:00,2.2,2.2,30.68,South,178,0.0,-999.0,100,-99.99,,,0.00,0.0,cwc,2013-01-16 09:35:00,
2013-01-16 02:40:00,1.8,1.8,30.68,South,178,0.0,-999.0,100,-99.99,,,0.00,0.0,cwc,2013-01-16 09:40:00,
2013-01-16 02:45:00,1.8,1.8,30.68,South,178,0.0,-999.0,100,-99.99,,,0.00,0.0,cwc,2013-01-16 09:45:00,
2013-01-16 02:50:00,1.7,1.7,30.71,South,182,0.0,-999.0,100,-99.99,,,0.00,0.0,cwc,2013-01-16 09:50:00,
2013-01-16 02:55:00,1.8,1.8,30.71,SE,124,2.0,-999.0,100,-99.99,,,0.00,0.0,cwc,2013-01-16 09:55:00,
2013-01-16 03:00:00,1.1,1.1,30.71,SE,124,0.0,-999.0,100,-99.99,,,0.00,0.0,cwc,2013-01-16 10:00:00,
2013-01-16 03:05:00,0.3,0.3,30.73,SE,124,0.0,-999.0,100,-99.99,,,0.00,0.0,cwc,2013-01-16 10:05:00,
2013-01-16 03:10:00,2.8,2.8,30.73,SE,124,0.0,-999.0,100,-99.99,,,0.00,0.0,cwc,2013-01-16 10:10:00,
2013-01-16 03:15:00,1.1,1.1,30.73,SE,124,0.0,-999.0,100,-99.99,,,0.00,0.0,cwc,2013-01-16 10:15:00,
2013-01-16 03:20:00,1.8,1.8,30.84,SE,124,0.0,-999.0,100,-99.99,,,0.00,0.0,cwc,2013-01-16 10:20:00,
2013-01-16 03:25:00,3.7,3.7,30.84,SE,124,0.0,-999.0,100,-99.99,,,0.00,0.0,cwc,2013-01-16 10:25:00,
2013-01-16 03:30:00,3.9,3.9,30.84,SE,124,0.0,-999.0,100,-99.99,,,0.00,0.0,cwc,2013-01-16 10:30:00,
2013-01-16 03:35:00,5.8,5.8,30.85,SE,124,0.0,-999.0,100,-99.99,,,0.00,0.0,cwc,2013-01-16 10:35:00,
2013-01-16 03:40:00,7.7,7.7,30.85,SE,124,0.0,-999.0,100,-99.99,,,0.00,0.0,cwc,2013-01-16 10:40:00,
2013-01-16 03:45:00,3.4,3.4,30.85,SE,130,2.0,-999.0,100,-99.99,,,0.00,0.0,cwc,2013-01-16 10:45:00,
2013-01-16 03:50:00,4.8,4.8,30.87,SE,140,0.0,-999.0,100,-99.99,,,0.00,0.0,cwc,2013-01-16 10:50:00,
2013-01-16 03:55:00,4.1,4.1,30.87,SE,140,0.0,-999.0,100,-99.99,,,0.00,0.0,cwc,2013-01-16 10:55:00,
2013-01-16 04:00:00,3.0,3.0,30.87,SE,141,0.0,-999.0,100,-99.99,,,0.00,0.0,cwc,2013-01-16 11:00:00,
2013-01-16 04:05:00,2.0,2.0,30.86,SE,141,0.0,-999.0,100,-99.99,,,0.00,0.0,cwc,2013-01-16 11:05:00,
2013-01-16 04:10:00,1.1,1.1,30.86,SE,141,0.0,-999.0,100,-99.99,,,0.00,0.0,cwc,2013-01-16 11:10:00,
2013-01-16 04:15:00,0.1,0.1,30.86,SE,141,0.0,-999.0,100,-99.99,,,0.00,0.0,cwc,2013-01-16 11:15:00,
2013-01-16 04:20:00,0.1,0.1,30.91,SE,141,0.0,-999.0,100,-99.99,,,0.00,0.0,cwc,2013-01-16 11:20:00,
2013-01-16 04:25:00,1.1,1.1,30.91,SE,141,0.0,-999.0,100,-99.99,,,0.00,0.0,cwc,2013-01-16 11:25:00,
2013-01-16 04:30:00,2.4,2.4,30.91,SE,141,0.0,-999.0,100,-99.99,,,0.00,0.0,cwc,2013-01-16 11:30:00,
2013-01-16 04:35:00,4.5,4.5,30.88,SE,141,0.0,-999.0,100,-99.99,,,0.00,0.0,cwc,2013-01-16 11:35:00,
2013-01-16 04:40:00,3.7,3.7,30.88,SE,141,0.0,-999.0,100,-99.99,,,0.00,0.0,cwc,2013-01-16 11:40:00,
2013-01-16 04:45:00,2.8,2.8,30.88,SE,141,0.0,-999.0,100,-99.99,,,0.00,0.0,cwc,2013-01-16 11:45:00,
2013-01-16 04:50:00,1.1,1.1,30.85,SE,141,0.0,-999.0,100,-99.99,,,0.00,0.0,cwc,2013-01-16 11:50:00,
2013-01-16 04:55:00,2.0,2.0,30.85,SE,141,0.0,-999.0,100,-99.99,,,0.00,0.0,cwc,2013-01-16 11:55:00,
2013-01-16 05:00:00,7.2,7.2,30.85,SE,141,0.0,-999.0,100,-99.99,,,0.00,0.0,cwc,2013-01-16 12:00:00,
2013-01-16 05:05:00,3.5,3.5,30.80,SE,141,0.0,-999.0,100,-99.99,,,0.00,0.0,cwc,2013-01-16 12:05:00,
2013-01-16 05:10:00,2.0,2.0,30.80,SE,141,0.0,-999.0,100,-99.99,,,0.00,0.0,cwc,2013-01-16 12:10:00,
2013-01-16 05:15:00,2.2,2.2,30.80,SE,141,0.0,-999.0,100,-99.99,,,0.00,0.0,cwc,2013-01-16 12:15:00,
2013-01-16 05:20:00,4.8,4.8,30.71,SE,141,0.0,-999.0,100,-99.99,,,0.00,0.0,cwc,2013-01-16 12:20:00,
2013-01-16 05:25:00,1.7,1.7,30.71,SE,141,0.0,-999.0,100,-99.99,,,0.00,0.0,cwc,2013-01-16 12:25:00,
2013-01-16 05:30:00,0.7,0.7,30.71,SE,141,0.0,-999.0,100,-99.99,,,0.00,0.0,cwc,2013-01-16 12:30:00,
2013-01-16 05:40:00,-0.2,-0.2,30.71,SE,141,0.0,-999.0,100,-99.99,,,0.00,0.0,cwc,2013-01-16 12:40:00,
2013-01-16 05:45:00,-0.4,-0.4,30.71,SE,141,0.0,-999.0,100,-99.99,,,0.00,0.0,cwc,2013-01-16 12:45:00,
2013-01-16 05:50:00,-0.4,-0.4,30.69,SE,141,0.0,-999.0,100,-99.99,,,0.00,0.0,cwc,2013-01-16 12:50:00,
2013-01-16 05:55:00,0.7,0.7,30.69,SE,141,0.0,-999.0,100,-99.99,,,0.00,0.0,cwc,2013-01-16 12:55:00,
2013-01-16 06:00:00,0.5,0.5,30.69,SE,141,0.0,-999.0,100,-99.99,,,0.00,0.0,cwc,2013-01-16 13:00:00,
2013-01-16 06:05:00,0.7,0.7,30.72,SE,141,0.0,-999.0,100,-99.99,,,0.00,0.0,cwc,2013-01-16 13:05:00,
2013-01-16 06:15:00,0.3,0.3,30.72,SE,141,0.0,-999.0,100,-99.99,,,0.00,0.0,cwc,2013-01-16 13:15:00,
2013-01-16 06:20:00,0.9,0.9,30.74,SE,141,0.0,-999.0,100,-99.99,,,0.00,0.0,cwc,2013-01-16 13:20:00,
2013-01-16 06:25:00,-0.4,-0.4,30.74,SE,141,0.0,-999.0,100,-99.99,,,0.00,0.0,cwc,2013-01-16 13:25:00,
2013-01-16 06:30:00,-0.8,-0.8,30.74,SE,141,0.0,-999.0,100,-99.99,,,0.00,0.0,cwc,2013-01-16 13:30:00,
2013-01-16 06:35:00,-1.2,-1.2,30.74,SE,141,0.0,-999.0,100,-99.99,,,0.00,0.0,cwc,2013-01-16 13:35:00,
2013-01-16 06:40:00,0.5,0.5,30.74,SE,141,0.0,-999.0,100,-99.99,,,0.00,0.0,cwc,2013-01-16 13:40:00,
2013-01-16 06:45:00,-0.6,-0.6,30.74,SE,141,0.0,-999.0,100,-99.99,,,0.00,0.0,cwc,2013-01-16 13:45:00,
2013-01-16 06:50:00,-1.4,-1.4,30.74,SE,141,0.0,-999.0,100,-99.99,,,0.00,0.0,cwc,2013-01-16 13:50:00,
2013-01-16 06:55:00,-0.8,-0.8,30.74,SE,141,0.0,-999.0,100,-99.99,,,0.00,0.0,cwc,2013-01-16 13:55:00,
2013-01-16 07:00:00,0.1,0.1,30.74,SE,141,0.0,-999.0,100,-99.99,,,0.00,0.0,cwc,2013-01-16 14:00:00,
2013-01-16 07:05:00,-0.2,-0.2,30.73,SE,141,0.0,-999.0,100,-99.99,,,0.00,0.0,cwc,2013-01-16 14:05:00,
2013-01-16 07:10:00,-1.2,-1.2,30.73,SE,141,0.0,-999.0,100,-99.99,,,0.00,0.0,cwc,2013-01-16 14:10:00,
2013-01-16 07:15:00,-0.4,-0.4,30.73,SE,141,0.0,-999.0,100,-99.99,,,0.00,0.0,cwc,2013-01-16 14:15:00,
2013-01-16 07:20:00,-1.8,-1.8,30.87,SE,141,0.0,-999.0,100,-99.99,,,0.00,0.0,cwc,2013-01-16 14:20:00,
2013-01-16 07:25:00,-1.4,-1.4,30.87,SE,141,0.0,-999.0,100,-99.99,,,0.00,0.0,cwc,2013-01-16 14:25:00,
2013-01-16 07:30:00,-1.8,-1.8,30.87,SE,141,0.0,-999.0,100,-99.99,,,0.00,0.0,cwc,2013-01-16 14:30:00,
2013-01-16 07:35:00,-0.6,-0.6,30.89,SE,141,0.0,-999.0,100,-99.99,,,0.00,0.0,cwc,2013-01-16 14:35:00,
2013-01-16 07:40:00,3.5,3.5,30.89,SE,141,0.0,-999.0,100,-99.99,,,0.00,0.0,cwc,2013-01-16 14:40:00,
2013-01-16 07:45:00,1.3,1.3,30.89,SE,141,0.0,-999.0,100,-99.99,,,0.00,0.0,cwc,2013-01-16 14:45:00,
2013-01-16 07:50:00,0.5,0.5,30.87,SE,141,0.0,-999.0,100,-99.99,,,0.00,0.0,cwc,2013-01-16 14:50:00,
2013-01-16 07:55:00,0.1,0.1,30.87,SE,141,0.0,-999.0,100,-99.99,,,0.00,0.0,cwc,2013-01-16 14:55:00,
2013-01-16 08:00:00,0.3,0.3,30.87,SE,141,0.0,-999.0,100,-99.99,,,0.00,0.0,cwc,2013-01-16 15:00:00,
2013-01-16 08:05:00,0.7,0.7,30.90,SE,141,0.0,-999.0,100,-99.99,,,0.00,0.0,cwc,2013-01-16 15:05:00,
2013-01-16 08:10:00,6.9,6.9,30.90,SE,141,0.0,-999.0,100,-99.99,,,0.00,0.0,cwc,2013-01-16 15:10:00,
2013-01-16 08:15:00,7.0,7.0,30.90,SE,141,0.0,-999.0,100,-99.99,,,0.00,0.0,cwc,2013-01-16 15:15:00,
2013-01-16 08:20:00,6.5,6.5,30.80,SE,141,0.0,-999.0,100,-99.99,,,0.00,0.0,cwc,2013-01-16 15:20:00,
2013-01-16 08:25:00,5.8,5.8,30.80,SE,141,0.0,-999.0,100,-99.99,,,0.00,0.0,cwc,2013-01-16 15:25:00,
2013-01-16 08:30:00,5.6,5.6,30.80,SE,141,0.0,-999.0,100,-99.99,,,0.00,0.0,cwc,2013-01-16 15:30:00,
2013-01-16 08:35:00,7.0,7.0,30.85,SE,141,0.0,-999.0,100,-99.99,,,0.00,0.0,cwc,2013-01-16 15:35:00,
2013-01-16 08:40:00,7.6,7.6,30.85,SE,141,0.0,-999.0,100,-99.99,,,0.00,0.0,cwc,2013-01-16 15:40:00,
2013-01-16 08:45:00,11.7,11.7,30.85,SE,141,0.0,-999.0,100,-99.99,,,0.00,0.0,cwc,2013-01-16 15:45:00,
2013-01-16 08:50:00,8.4,8.4,30.81,SE,141,0.0,-999.0,100,-99.99,,,0.00,0.0,cwc,2013-01-16 15:50:00,
2013-01-16 08:55:00,8.1,8.1,30.81,SE,141,0.0,-999.0,100,-99.99,,,0.00,0.0,cwc,2013-01-16 15:55:00,
2013-01-16 09:00:00,8.3,8.3,30.81,SE,141,0.0,-999.0,100,-99.99,,,0.00,0.0,cwc,2013-01-16 16:00:00,
2013-01-16 09:05:00,9.2,9.2,30.83,SE,141,0.0,-999.0,100,-99.99,,,0.00,0.0,cwc,2013-01-16 16:05:00,
2013-01-16 09:10:00,9.2,-0.5,30.83,SE,141,0.0,-999.0,73,-99.99,,,0.00,0.0,cwc,2013-01-16 16:10:00,
2013-01-16 09:15:00,9.2,-0.5,30.83,SE,141,0.0,-999.0,73,-99.99,,,0.00,0.0,cwc,2013-01-16 16:15:00,
2013-01-16 09:20:00,9.9,-1.6,30.85,SE,141,0.0,-999.0,68,-99.99,,,0.00,0.0,cwc,2013-01-16 16:20:00,
2013-01-16 09:25:00,10.7,-5.1,30.85,SW,233,0.0,-999.0,56,-99.99,,,0.00,0.0,cwc,2013-01-16 16:25:00,
2013-01-16 09:30:00,11.4,-4.4,30.85,WSW,254,0.0,-999.0,56,-99.99,,,0.00,0.0,cwc,2013-01-16 16:30:00,
2013-01-16 09:35:00,12.1,-9.1,30.83,WSW,254,0.0,-999.0,41,-99.99,,,0.00,0.0,cwc,2013-01-16 16:35:00,
2013-01-16 09:40:00,12.3,-8.2,30.83,WSW,254,0.0,-999.0,43,-99.99,,,0.00,0.0,cwc,2013-01-16 16:40:00,
2013-01-16 09:45:00,16.7,-13.5,30.83,WSW,254,0.0,-999.0,16,-99.99,,,0.00,0.0,cwc,2013-01-16 16:45:00,
2013-01-16 09:50:00,13.8,-16.4,30.80,WSW,254,0.0,-999.0,16,-99.99,,,0.00,0.0,cwc,2013-01-16 16:50:00,
2013-01-16 09:55:00,14.3,-14.5,30.80,SW,219,0.0,-999.0,20,-99.99,,,0.00,0.0,cwc,2013-01-16 16:55:00,
2013-01-16 10:00:00,13.8,7.3,30.80,SW,219,0.0,-999.0,82,-99.99,,,0.00,0.0,cwc,2013-01-16 17:00:00,
2013-01-16 10:05:00,15.6,-11.8,30.81,SW,219,0.0,-999.0,24,-99.99,,,0.00,0.0,cwc,2013-01-16 17:05:00,
2013-01-16 10:10:00,15.7,9.2,30.81,SW,219,0.0,-999.0,82,-99.99,,,0.00,0.0,cwc,2013-01-16 17:10:00,
2013-01-16 10:15:00,17.0,10.5,30.81,SSW,195,0.0,-999.0,82,-99.99,,,0.00,0.0,cwc,2013-01-16 17:15:00,
2013-01-16 10:20:00,17.0,17.0,30.77,SSW,195,0.0,-999.0,100,-99.99,,,0.00,0.0,cwc,2013-01-16 17:20:00,
2013-01-16 10:25:00,17.5,17.5,30.77,SSW,195,0.0,-999.0,100,-99.99,,,0.00,0.0,cwc,2013-01-16 17:25:00,
2013-01-16 10:30:00,18.0,18.0,30.77,SSW,195,0.0,-999.0,100,-99.99,,,0.00,0.0,cwc,2013-01-16 17:30:00,
2013-01-16 10:35:00,18.6,18.6,30.75,SSW,195,0.0,-999.0,100,-99.99,,,0.00,0.0,cwc,2013-01-16 17:35:00,
2013-01-16 10:40:00,17.3,17.3,30.75,SW,220,0.0,-999.0,100,-99.99,,,0.00,0.0,cwc,2013-01-16 17:40:00,
2013-01-16 10:45:00,20.0,20.0,30.75,SW,216,0.0,-999.0,100,-99.99,,,0.00,0.0,cwc,2013-01-16 17:45:00,
2013-01-16 10:50:00,19.5,15.9,30.70,SSW,200,2.0,-999.0,90,-99.99,,,0.00,0.0,cwc,2013-01-16 17:50:00,
2013-01-16 10:55:00,21.1,15.7,30.70,SSW,205,0.0,-999.0,85,-99.99,,,0.00,0.0,cwc,2013-01-16 17:55:00,
2013-01-16 11:00:00,21.3,10.9,30.70,South,178,0.0,-999.0,71,-99.99,,,0.00,0.0,cwc,2013-01-16 18:00:00,
2013-01-16 11:05:00,22.1,17.1,30.72,SSE,164,0.0,-999.0,86,-99.99,,,0.00,0.0,cwc,2013-01-16 18:05:00,
2013-01-16 11:10:00,22.7,3.6,30.72,SE,124,0.0,-999.0,47,-99.99,,,0.00,0.0,cwc,2013-01-16 18:10:00,
2013-01-16 11:15:00,24.7,16.4,30.72,SE,124,0.0,-999.0,77,-99.99,,,0.00,0.0,cwc,2013-01-16 18:15:00,
2013-01-16 11:20:00,26.1,5.9,30.68,SE,124,0.0,-999.0,44,-99.99,,,0.00,0.0,cwc,2013-01-16 18:20:00,
2013-01-16 11:25:00,25.4,3.4,30.68,SE,124,0.0,-999.0,39,-99.99,,,0.00,0.0,cwc,2013-01-16 18:25:00,
2013-01-16 11:30:00,25.4,2.0,30.68,SE,127,0.0,-999.0,35,-99.99,,,0.00,0.0,cwc,2013-01-16 18:30:00,
2013-01-16 11:40:00,28.2,5.2,30.68,SE,127,0.0,-999.0,36,-99.99,,,0.00,0.0,cwc,2013-01-16 18:40:00,
2013-01-16 11:45:00,29.0,6.3,30.68,SE,127,0.0,-999.0,37,-99.99,,,0.00,0.0,cwc,2013-01-16 18:45:00,
2013-01-16 11:50:00,29.4,4.2,30.63,SE,128,6.0,-999.0,30,-99.99,,,0.00,0.0,cwc,2013-01-16 18:50:00,
2013-01-16 11:55:00,29.5,3.9,30.63,SE,128,0.0,-999.0,29,-99.99,,,0.00,0.0,cwc,2013-01-16 18:55:00,
2013-01-16 12:00:00,31.9,7.8,30.63,SE,128,0.0,-999.0,33,-99.99,,,0.00,0.0,cwc,2013-01-16 19:00:00,
2013-01-16 12:05:00,31.2,6.0,30.59,SE,128,0.0,-999.0,30,-99.99,,,0.00,0.0,cwc,2013-01-16 19:05:00,
2013-01-16 12:10:00,31.2,6.4,30.59,NE,38,8.0,-999.0,31,-99.99,,,0.00,0.0,cwc,2013-01-16 19:10:00,
2013-01-16 12:15:00,30.4,5.9,30.59,NNE,31,9.0,-999.0,32,-99.99,,,0.00,0.0,cwc,2013-01-16 19:15:00,
2013-01-16 12:20:00,30.3,5.8,30.58,NNE,31,4.0,-999.0,32,-99.99,,,0.00,0.0,cwc,2013-01-16 19:20:00,
2013-01-16 12:25:00,30.7,6.2,30.58,NE,54,7.0,-999.0,32,-99.99,,,0.00,0.0,cwc,2013-01-16 19:25:00,
2013-01-16 12:30:00,30.9,6.4,30.58,NNE,23,4.0,-999.0,32,-99.99,,,0.00,0.0,cwc,2013-01-16 19:30:00,
2013-01-16 12:35:00,31.8,6.6,30.55,NE,55,7.0,-999.0,30,-99.99,,,0.00,0.0,cwc,2013-01-16 19:35:00,
2013-01-16 12:40:00,32.1,7.3,30.55,NE,54,9.0,-999.0,31,-99.99,,,0.00,0.0,cwc,2013-01-16 19:40:00,
2013-01-16 12:45:00,33.1,8.3,30.55,NE,40,0.0,-999.0,31,-99.99,,,0.00,0.0,cwc,2013-01-16 19:45:00,
2013-01-16 12:50:00,33.1,8.6,30.53,NNE,30,1.0,-999.0,32,-99.99,,,0.00,0.0,cwc,2013-01-16 19:50:00,
2013-01-16 12:55:00,33.1,8.6,30.53,NNE,30,1.0,-999.0,32,-99.99,,,0.00,0.0,cwc,2013-01-16 19:55:00,
2013-01-16 13:00:00,33.1,8.6,30.53,NNE,30,1.0,-999.0,32,-99.99,,,0.00,0.0,cwc,2013-01-16 20:00:00,
2013-01-16 13:05:00,33.1,8.6,30.52,NNE,30,1.0,-999.0,32,-99.99,,,0.00,0.0,cwc,2013-01-16 20:05:00,
2013-01-16 13:10:00,33.1,8.6,30.52,NNE,30,1.0,-999.0,32,-99.99,,,0.00,0.0,cwc,2013-01-16 20:10:00,
2013-01-16 13:15:00,33.1,8.6,30.52,NNE,30,1.0,-999.0,32,-99.99,,,0.00,0.0,cwc,2013-01-16 20:15:00,
2013-01-16 13:20:00,33.1,8.6,30.69,NNE,30,1.0,-999.0,32,-99.99,,,0.00,0.0,cwc,2013-01-16 20:20:00,
2013-01-16 13:25:00,33.1,8.6,30.69,NNE,30,1.0,-999.0,32,-99.99,,,0.00,0.0,cwc,2013-01-16 20:25:00,
2013-01-16 13:30:00,33.1,8.6,30.69,NNE,30,1.0,-999.0,32,-99.99,,,0.00,0.0,cwc,2013-01-16 20:30:00,
2013-01-16 13:35:00,33.1,8.6,30.69,NNE,30,1.0,-999.0,32,-99.99,,,0.00,0.0,cwc,2013-01-16 20:35:00,
2013-01-16 13:40:00,38.3,13.8,30.69,NE,35,2.0,-999.0,32,-99.99,,,0.00,0.0,cwc,2013-01-16 20:40:00,
2013-01-16 13:45:00,38.8,14.3,30.69,NE,35,4.0,-999.0,32,-99.99,,,0.00,0.0,cwc,2013-01-16 20:45:00,
2013-01-16 13:50:00,38.8,13.2,30.44,NE,40,8.0,-999.0,29,-99.99,,,0.00,0.0,cwc,2013-01-16 20:50:00,
2013-01-16 13:55:00,38.8,13.2,30.44,NNE,24,9.0,-999.0,29,-99.99,,,0.00,0.0,cwc,2013-01-16 20:55:00,
2013-01-16 14:00:00,37.6,12.0,30.44,NE,40,13.0,-999.0,29,-99.99,,,0.00,0.0,cwc,2013-01-16 21:00:00,
2013-01-16 14:05:00,37.6,12.0,30.48,NE,48,8.0,-999.0,29,-99.99,,,0.00,0.0,cwc,2013-01-16 21:05:00,
2013-01-16 14:10:00,38.2,12.6,30.48,NE,51,4.0,-999.0,29,-99.99,,,0.00,0.0,cwc,2013-01-16 21:10:00,
2013-01-16 14:15:00,38.2,12.6,30.48,NE,51,4.0,-999.0,29,-99.99,,,0.00,0.0,cwc,2013-01-16 21:15:00,
2013-01-16 14:20:00,38.2,12.6,30.50,NE,51,4.0,-999.0,29,-99.99,,,0.00,0.0,cwc,2013-01-16 21:20:00,
2013-01-16 14:25:00,38.2,12.6,30.50,NE,51,4.0,-999.0,29,-99.99,,,0.00,0.0,cwc,2013-01-16 21:25:00,
2013-01-16 14:30:00,38.2,12.6,30.50,NE,51,4.0,-999.0,29,-99.99,,,0.00,0.0,cwc,2013-01-16 21:30:00,
2013-01-16 14:35:00,38.2,12.6,30.73,NE,51,4.0,-999.0,29,-99.99,,,0.00,0.0,cwc,2013-01-16 21:35:00,
2013-01-16 14:40:00,38.2,12.6,30.73,NE,51,4.0,-999.0,29,-99.99,,,0.00,0.0,cwc,2013-01-16 21:40:00,
2013-01-16 14:45:00,38.2,12.6,30.73,NE,51,4.0,-999.0,29,-99.99,,,0.00,0.0,cwc,2013-01-16 21:45:00,
2013-01-16 14:50:00,38.2,12.6,30.73,NE,51,4.0,-999.0,29,-99.99,,,0.00,0.0,cwc,2013-01-16 21:50:00,
2013-01-16 14:55:00,38.2,12.6,30.73,NE,51,4.0,-999.0,29,-99.99,,,0.00,0.0,cwc,2013-01-16 21:55:00,
2013-01-16 15:00:00,38.2,12.6,30.73,NE,51,4.0,-999.0,29,-99.99,,,0.00,0.0,cwc,2013-01-16 22:00:00,
2013-01-16 15:05:00,38.2,12.6,30.72,NE,51,4.0,-999.0,29,-99.99,,,0.00,0.0,cwc,2013-01-16 22:05:00,
2013-01-16 15:10:00,38.2,12.6,30.72,NE,51,4.0,-999.0,29,-99.99,,,0.00,0.0,cwc,2013-01-16 22:10:00,
2013-01-16 15:15:00,38.2,12.6,30.72,NE,51,4.0,-999.0,29,-99.99,,,0.00,0.0,cwc,2013-01-16 22:15:00,
2013-01-16 15:20:00,38.2,12.6,30.69,NE,51,4.0,-999.0,29,-99.99,,,0.00,0.0,cwc,2013-01-16 22:20:00,
2013-01-16 15:25:00,38.2,12.6,30.69,NE,51,4.0,-999.0,29,-99.99,,,0.00,0.0,cwc,2013-01-16 22:25:00,
2013-01-16 15:30:00,38.2,12.6,30.69,NE,51,4.0,-999.0,29,-99.99,,,0.00,0.0,cwc,2013-01-16 22:30:00,
2013-01-16 15:35:00,38.2,12.6,30.69,NE,51,4.0,-999.0,29,-99.99,,,0.00,0.0,cwc,2013-01-16 22:35:00,
2013-01-16 15:40:00,38.2,12.6,30.69,NE,51,4.0,-999.0,29,-99.99,,,0.00,0.0,cwc,2013-01-16 22:40:00,
2013-01-16 15:45:00,38.2,12.6,30.69,NE,51,4.0,-999.0,29,-99.99,,,0.00,0.0,cwc,2013-01-16 22:45:00,
2013-01-16 15:50:00,38.2,12.6,30.69,NE,51,4.0,-999.0,29,-99.99,,,0.00,0.0,cwc,2013-01-16 22:50:00,
2013-01-16 15:55:00,38.2,12.6,30.69,NE,51,4.0,-999.0,29,-99.99,,,0.00,0.0,cwc,2013-01-16 22:55:00,
2013-01-16 16:00:00,40.3,14.4,30.69,NNE,31,4.0,-999.0,28,-99.99,,,0.00,0.0,cwc,2013-01-16 23:00:00,
2013-01-16 16:05:00,40.3,14.7,30.48,NE,38,2.0,-999.0,29,-99.99,,,0.00,0.0,cwc,2013-01-16 23:05:00,
2013-01-16 16:10:00,40.3,14.7,30.48,NE,35,6.0,-999.0,29,-99.99,,,0.00,0.0,cwc,2013-01-16 23:10:00,
2013-01-16 16:15:00,40.3,14.7,30.48,NE,41,7.0,-999.0,29,-99.99,,,0.00,0.0,cwc,2013-01-16 23:15:00,
2013-01-16 16:20:00,40.3,14.7,30.42,NE,41,7.0,-999.0,29,-99.99,,,0.00,0.0,cwc,2013-01-16 23:20:00,
2013-01-16 16:25:00,40.3,14.7,30.42,NE,41,7.0,-999.0,29,-99.99,,,0.00,0.0,cwc,2013-01-16 23:25:00,
2013-01-16 16:30:00,40.3,14.7,30.42,NE,41,7.0,-999.0,29,-99.99,,,0.00,0.0,cwc,2013-01-16 23:30:00,
2013-01-16 16:35:00,40.3,14.7,30.58,NE,41,7.0,-999.0,29,-99.99,,,0.00,0.0,cwc,2013-01-16 23:35:00,
2013-01-16 16:40:00,40.3,14.7,30.58,NE,41,7.0,-999.0,29,-99.99,,,0.00,0.0,cwc,2013-01-16 23:40:00,
2013-01-16 16:45:00,40.3,14.7,30.58,NE,41,7.0,-999.0,29,-99.99,,,0.00,0.0,cwc,2013-01-16 23:45:00,
2013-01-16 16:50:00,40.3,14.7,30.59,NE,41,7.0,-999.0,29,-99.99,,,0.00,0.0,cwc,2013-01-16 23:50:00,
2013-01-16 16:55:00,40.3,14.7,30.59,NE,37,0.0,-999.0,29,-99.99,,,0.00,0.0,cwc,2013-01-16 23:55:00,
2013-01-16 17:00:00,39.1,14.3,30.59,NE,37,0.0,-999.0,31,-99.99,,,0.00,0.0,cwc,2013-01-17 00:00:00,
2013-01-16 17:05:00,37.5,13.0,30.44,NE,37,0.0,-999.0,32,-99.99,,,0.00,0.0,cwc,2013-01-17 00:05:00,
2013-01-16 17:10:00,35.8,12.8,30.44,NE,37,0.0,-999.0,36,-99.99,,,0.00,0.0,cwc,2013-01-17 00:10:00,
2013-01-16 17:15:00,36.3,14.7,30.44,NE,37,0.0,-999.0,40,-99.99,,,0.00,0.0,cwc,2013-01-17 00:15:00,
2013-01-16 17:20:00,37.8,16.2,30.53,NE,37,0.0,-999.0,40,-99.99,,,0.00,0.0,cwc,2013-01-17 00:20:00,
2013-01-16 17:25:00,37.8,16.2,30.53,NE,37,1.0,-999.0,40,-99.99,,,0.00,0.0,cwc,2013-01-17 00:25:00,
2013-01-16 17:35:00,34.3,12.7,30.55,North,359,2.0,-999.0,40,-99.99,,,0.00,0.0,cwc,2013-01-17 00:35:00,
2013-01-16 17:40:00,34.3,12.7,30.55,NNW,347,4.0,-999.0,40,-99.99,,,0.00,0.0,cwc,2013-01-17 00:40:00,
2013-01-16 17:45:00,33.8,12.2,30.55,North,356,2.0,-999.0,40,-99.99,,,0.00,0.0,cwc,2013-01-17 00:45:00,
2013-01-16 17:50:00,33.7,12.1,30.56,North,356,4.0,-999.0,40,-99.99,,,0.00,0.0,cwc,2013-01-17 00:50:00,
2013-01-16 17:55:00,33.7,12.1,30.56,North,356,0.0,-999.0,40,-99.99,,,0.00,0.0,cwc,2013-01-17 00:55:00,
2013-01-16 18:00:00,33.1,11.5,30.56,North,354,1.0,-999.0,40,-99.99,,,0.00,0.0,cwc,2013-01-17 01:00:00,
2013-01-16 18:05:00,32.8,11.2,30.59,North,7,0.0,-999.0,40,-99.99,,,0.00,0.0,cwc,2013-01-17 01:05:00,
2013-01-16 18:10:00,32.4,11.5,30.59,NNE,25,2.0,-999.0,42,-99.99,,,0.00,0.0,cwc,2013-01-17 01:10:00,
2013-01-16 18:15:00,32.1,11.2,30.59,NNE,25,4.0,-999.0,42,-99.99,,,0.00,0.0,cwc,2013-01-17 01:15:00,
2013-01-16 18:20:00,31.8,12.7,30.61,NE,38,2.0,-999.0,47,-99.99,,,0.00,0.0,cwc,2013-01-17 01:20:00,
2013-01-16 18:25:00,31.5,11.0,30.61,NE,41,6.0,-999.0,43,-99.99,,,0.00,0.0,cwc,2013-01-17 01:25:00,
2013-01-16 18:30:00,31.3,11.5,30.61,NE,41,4.0,-999.0,45,-99.99,,,0.00,0.0,cwc,2013-01-17 01:30:00,
2013-01-16 18:35:00,33.4,20.4,30.64,NE,41,0.0,-999.0,64,-99.99,,,0.00,0.0,cwc,2013-01-17 01:35:00,
2013-01-16 18:40:00,32.7,14.3,30.64,NE,41,0.0,-999.0,49,-99.99,,,0.00,0.0,cwc,2013-01-17 01:40:00,
2013-01-16 18:45:00,31.5,12.4,30.64,NNE,31,4.0,-999.0,47,-99.99,,,0.00,0.0,cwc,2013-01-17 01:45:00,
2013-01-16 18:50:00,30.6,10.4,30.65,NE,34,0.0,-999.0,44,-99.99,,,0.00,0.0,cwc,2013-01-17 01:50:00,
2013-01-16 18:55:00,29.8,10.4,30.65,NE,34,4.0,-999.0,46,-99.99,,,0.00,0.0,cwc,2013-01-17 01:55:00,
2013-01-16 19:00:00,29.3,10.2,30.65,NE,44,4.0,-999.0,47,-99.99,,,0.00,0.0,cwc,2013-01-17 02:00:00,
2013-01-16 19:05:00,28.4,9.3,30.67,NNE,30,7.0,-999.0,47,-99.99,,,0.00,0.0,cwc,2013-01-17 02:05:00,
2013-01-16 19:10:00,28.7,9.6,30.67,NNE,25,0.0,-999.0,47,-99.99,,,0.00,0.0,cwc,2013-01-17 02:10:00,
2013-01-16 19:15:00,28.2,10.6,30.67,NNE,25,2.0,-999.0,51,-99.99,,,0.00,0.0,cwc,2013-01-17 02:15:00,
2013-01-16 19:20:00,27.8,9.4,30.67,NNE,25,4.0,-999.0,49,-99.99,,,0.00,0.0,cwc,2013-01-17 02:20:00,
2013-01-16 19:25:00,27.9,10.3,30.67,NNE,25,0.0,-999.0,51,-99.99,,,0.00,0.0,cwc,2013-01-17 02:25:00,
2013-01-16 19:30:00,27.5,9.9,30.67,NNE,25,1.0,-999.0,51,-99.99,,,0.00,0.0,cwc,2013-01-17 02:30:00,
2013-01-16 19:35:00,26.9,8.5,30.68,NNE,23,2.0,-999.0,49,-99.99,,,0.00,0.0,cwc,2013-01-17 02:35:00,
2013-01-16 19:40:00,26.6,8.2,30.68,North,0,0.0,-999.0,49,-99.99,,,0.00,0.0,cwc,2013-01-17 02:40:00,
2013-01-16 19:45:00,26.6,8.2,30.68,North,0,2.0,-999.0,49,-99.99,,,0.00,0.0,cwc,2013-01-17 02:45:00,
2013-01-16 19:50:00,26.3,7.9,30.69,North,0,0.0,-999.0,49,-99.99,,,0.00,0.0,cwc,2013-01-17 02:50:00,
2013-01-16 19:55:00,26.3,7.9,30.69,NW,308,4.0,-999.0,49,-99.99,,,0.00,0.0,cwc,2013-01-17 02:55:00,
2013-01-16 20:00:00,26.0,7.3,30.69,NW,308,0.0,-999.0,48,-99.99,,,0.00,0.0,cwc,2013-01-17 03:00:00,
2013-01-16 20:05:00,25.8,7.1,30.71,NW,308,2.0,-999.0,48,-99.99,,,0.00,0.0,cwc,2013-01-17 03:05:00,
2013-01-16 20:10:00,25.8,7.8,30.71,North,0,1.0,-999.0,50,-99.99,,,0.00,0.0,cwc,2013-01-17 03:10:00,
2013-01-16 20:15:00,25.7,7.3,30.71,North,359,6.0,-999.0,49,-99.99,,,0.00,0.0,cwc,2013-01-17 03:15:00,
2013-01-16 20:20:00,25.6,7.2,30.66,North,0,4.0,-999.0,49,-99.99,,,0.00,0.0,cwc,2013-01-17 03:20:00,
2013-01-16 20:25:00,25.3,6.9,30.66,North,353,4.0,-999.0,49,-99.99,,,0.00,0.0,cwc,2013-01-17 03:25:00,
2013-01-16 20:30:00,25.1,7.5,30.66,North,3,0.0,-999.0,51,-99.99,,,0.00,0.0,cwc,2013-01-17 03:30:00,
2013-01-16 20:35:00,26.1,8.5,30.68,North,3,0.0,-999.0,51,-99.99,,,0.00,0.0,cwc,2013-01-17 03:35:00,
2013-01-16 20:40:00,26.1,8.5,30.68,North,3,0.0,-999.0,51,-99.99,,,0.00,0.0,cwc,2013-01-17 03:40:00,
2013-01-16 20:45:00,26.1,8.5,30.68,North,3,0.0,-999.0,51,-99.99,,,0.00,0.0,cwc,2013-01-17 03:45:00,
2013-01-16 20:50:00,26.1,8.5,30.76,North,3,0.0,-999.0,51,-99.99,,,0.00,0.0,cwc,2013-01-17 03:50:00,
2013-01-16 20:55:00,26.1,8.5,30.76,North,3,0.0,-999.0,51,-99.99,,,0.00,0.0,cwc,2013-01-17 03:55:00,
2013-01-16 21:00:00,26.1,8.5,30.76,North,3,0.0,-999.0,51,-99.99,,,0.00,0.0,cwc,2013-01-17 04:00:00,
2013-01-16 21:05:00,26.1,8.5,30.77,North,3,0.0,-999.0,51,-99.99,,,0.00,0.0,cwc,2013-01-17 04:05:00,
2013-01-16 21:10:00,26.1,8.5,30.77,North,3,0.0,-999.0,51,-99.99,,,0.00,0.0,cwc,2013-01-17 04:10:00,
2013-01-16 21:15:00,26.1,8.5,30.77,North,3,0.0,-999.0,51,-99.99,,,0.00,0.0,cwc,2013-01-17 04:15:00,
2013-01-16 21:20:00,26.1,8.5,30.69,North,3,0.0,-999.0,51,-99.99,,,0.00,0.0,cwc,2013-01-17 04:20:00,
2013-01-16 21:25:00,26.1,8.5,30.69,North,3,0.0,-999.0,51,-99.99,,,0.00,0.0,cwc,2013-01-17 04:25:00,
2013-01-16 21:30:00,26.1,8.5,30.69,North,3,0.0,-999.0,51,-99.99,,,0.00,0.0,cwc,2013-01-17 04:30:00,
2013-01-16 21:35:00,26.1,8.5,30.69,North,3,0.0,-999.0,51,-99.99,,,0.00,0.0,cwc,2013-01-17 04:35:00,
2013-01-16 21:40:00,26.1,8.5,30.69,North,3,0.0,-999.0,51,-99.99,,,0.00,0.0,cwc,2013-01-17 04:40:00,
2013-01-16 21:45:00,26.1,8.5,30.69,North,3,0.0,-999.0,51,-99.99,,,0.00,0.0,cwc,2013-01-17 04:45:00,
2013-01-16 21:50:00,26.1,8.5,30.69,North,3,0.0,-999.0,51,-99.99,,,0.00,0.0,cwc,2013-01-17 04:50:00,
2013-01-16 21:55:00,26.1,8.5,30.69,North,3,0.0,-999.0,51,-99.99,,,0.00,0.0,cwc,2013-01-17 04:55:00,
2013-01-16 22:05:00,26.1,8.5,30.69,North,3,0.0,-999.0,51,-99.99,,,0.00,0.0,cwc,2013-01-17 05:05:00,
2013-01-16 22:10:00,26.1,8.5,30.69,North,3,0.0,-999.0,51,-99.99,,,0.00,0.0,cwc,2013-01-17 05:10:00,
2013-01-16 22:15:00,26.1,8.5,30.69,North,3,0.0,-999.0,51,-99.99,,,0.00,0.0,cwc,2013-01-17 05:15:00,
2013-01-16 22:20:00,26.1,8.5,30.58,North,3,0.0,-999.0,51,-99.99,,,0.00,0.0,cwc,2013-01-17 05:20:00,
2013-01-16 22:25:00,26.1,8.5,30.58,North,3,0.0,-999.0,51,-99.99,,,0.00,0.0,cwc,2013-01-17 05:25:00,
2013-01-16 22:30:00,26.1,8.5,30.58,North,3,0.0,-999.0,51,-99.99,,,0.00,0.0,cwc,2013-01-17 05:30:00,
2013-01-16 22:35:00,26.1,8.5,30.59,North,3,0.0,-999.0,51,-99.99,,,0.00,0.0,cwc,2013-01-17 05:35:00,
2013-01-16 22:40:00,26.1,8.5,30.59,North,3,0.0,-999.0,51,-99.99,,,0.00,0.0,cwc,2013-01-17 05:40:00,
2013-01-16 22:45:00,26.1,8.5,30.59,North,3,0.0,-999.0,51,-99.99,,,0.00,0.0,cwc,2013-01-17 05:45:00,
2013-01-16 22:50:00,26.1,8.5,30.59,North,3,0.0,-999.0,51,-99.99,,,0.00,0.0,cwc,2013-01-17 05:50:00,
2013-01-16 22:55:00,26.1,8.5,30.59,North,3,0.0,-999.0,51,-99.99,,,0.00,0.0,cwc,2013-01-17 05:55:00,
2013-01-16 23:00:00,26.1,8.5,30.59,North,3,0.0,-999.0,51,-99.99,,,0.00,0.0,cwc,2013-01-17 06:00:00,
2013-01-16 23:05:00,26.1,8.5,30.60,North,3,0.0,-999.0,51,-99.99,,,0.00,0.0,cwc,2013-01-17 06:05:00,
2013-01-16 23:10:00,26.1,8.5,30.60,North,3,0.0,-999.0,51,-99.99,,,0.00,0.0,cwc,2013-01-17 06:10:00,
2013-01-16 23:15:00,26.1,8.5,30.60,North,3,0.0,-999.0,51,-99.99,,,0.00,0.0,cwc,2013-01-17 06:15:00,
2013-01-16 23:20:00,26.1,8.5,30.47,East,88,0.0,-999.0,51,-99.99,,,0.00,0.0,cwc,2013-01-17 06:20:00,
2013-01-16 23:25:00,26.1,8.5,30.47,East,88,0.0,-999.0,51,-99.99,,,0.00,0.0,cwc,2013-01-17 06:25:00,
2013-01-16 23:30:00,26.1,8.5,30.47,East,88,0.0,-999.0,51,-99.99,,,0.00,0.0,cwc,2013-01-17 06:30:00,
2013-01-16 23:35:00,26.1,14.9,30.47,East,88,0.0,-999.0,69,-99.99,,,0.00,0.0,cwc,2013-01-17 06:35:00,
2013-01-16 23:40:00,26.1,14.9,30.47,East,88,0.0,-999.0,69,-99.99,,,0.00,0.0,cwc,2013-01-17 06:40:00,
2013-01-16 23:45:00,26.1,14.9,30.47,East,88,0.0,-999.0,69,-99.99,,,0.00,0.0,cwc,2013-01-17 06:45:00,
2013-01-16 23:50:00,26.1,14.9,30.48,East,88,0.0,-999.0,69,-99.99,,,0.00,0.0,cwc,2013-01-17 06:50:00,
2013-01-16 23:55:00,26.1,14.9,30.48,East,88,0.0,-999.0,69,-99.99,,,0.00,0.0,cwc,2013-01-17 06:55:00,